| time (UTC) | temp F | wind direction | speed MPH | gust MPH | rain 1hr in | rain 24hr in | rain mn in | humidity % | barometer mb |
| 20260903194542 | 74 | 59 | 0.0 | 4.0 | 0.01 | 0.13 | 0.13 | 91 | 1011.4 |
| 20260903193042 | 74 | 75 | 1.0 | 4.0 | 0.00 | 0.12 | 0.12 | 89 | 1011.4 |
| 20260903191544 | 74 | 226 | 1.0 | 6.0 | 0.00 | 0.12 | 0.12 | 88 | 1011.1 |
| 20260903190041 | 74 | 225 | 4.0 | 8.0 | 0.00 | 0.12 | 0.12 | 87 | 1011.0 |
| 20260903184540 | 73 | 238 | 3.0 | 6.0 | 0.00 | 0.12 | 0.12 | 89 | 1011.1 |
| 20260903183039 | 74 | 229 | 3.0 | 5.0 | 0.00 | 0.12 | 0.12 | 90 | 1011.3 |
| 20260903181539 | 73 | 222 | 3.0 | 6.0 | 0.00 | 0.12 | 0.12 | 92 | 1011.5 |
| 20260903180039 | 74 | 223 | 3.0 | 5.0 | 0.00 | 0.12 | 0.12 | 90 | 1011.8 |
| 20260903174538 | 73 | 65 | 0.0 | 0.0 | 0.00 | 0.12 | 0.12 | 93 | 1012.0 |
| 20260903173038 | 71 | 65 | 0.0 | 0.0 | 0.00 | 0.12 | 0.12 | 95 | 1012.2 |
| 20260903171544 | 71 | 65 | 0.0 | 1.0 | 0.10 | 0.12 | 0.12 | 94 | 1012.6 |
| 20260903170039 | 72 | 68 | 0.0 | 7.0 | 0.12 | 0.12 | 0.12 | 94 | 1013.0 |
| 20260903164532 | 72 | 5 | 2.0 | 11.0 | 0.12 | 0.12 | 0.12 | 93 | 1012.9 |
| 20260903163028 | 74 | 360 | 9.0 | 19.0 | 0.12 | 0.12 | 0.12 | 88 | 1013.1 |
| 20260903161527 | 79 | 46 | 2.0 | 6.0 | 0.01 | 0.01 | 0.01 | 82 | 1013.3 |
| 20260903160022 | 80 | 83 | 1.0 | 6.0 | 0.00 | 0.00 | 0.00 | 82 | 1012.7 |
| 20260903154519 | 81 | 36 | 1.0 | 4.0 | 0.00 | 0.00 | 0.00 | 80 | 1012.0 |
| 20260903153018 | 82 | 65 | 0.0 | 10.0 | 0.00 | 0.00 | 0.00 | 79 | 1011.8 |
| 20260903151516 | 81 | 51 | 1.0 | 9.0 | 0.00 | 0.00 | 0.00 | 80 | 1011.7 |
| 20260903150017 | 81 | 40 | 7.0 | 15.0 | 0.00 | 0.00 | 0.00 | 73 | 1011.5 |
| 20260903144515 | 85 | 346 | 1.0 | 3.0 | 0.00 | 0.00 | 0.00 | 75 | 1010.9 |
| 20260903143012 | 86 | 256 | 0.0 | 3.0 | 0.00 | 0.00 | 0.00 | 73 | 1011.0 |
| 20260903141511 | 86 | 218 | 0.0 | 2.0 | 0.00 | 0.00 | 0.00 | 73 | 1010.9 |
| 20260903140015 | 86 | 266 | 1.0 | 8.0 | 0.00 | 0.00 | 0.00 | 72 | 1010.6 |
| 20260903134508 | 85 | 173 | 0.0 | 4.0 | 0.00 | 0.00 | 0.00 | 74 | 1010.4 |
| 20260903133002 | 84 | 212 | 1.0 | 5.0 | 0.00 | 0.00 | 0.00 | 75 | 1010.3 |
| 20260903131558 | 83 | 172 | 0.0 | 3.0 | 0.00 | 0.00 | 0.00 | 78 | 1010.2 |
| 20260903130105 | 82 | 313 | 1.0 | 6.0 | 0.00 | 0.00 | 0.00 | 80 | 1010.3 |
| 20260903124556 | 81 | 170 | 0.0 | 3.0 | 0.00 | 0.00 | 0.00 | 82 | 1010.3 |
| 20260903123050 | 80 | 227 | 0.0 | 5.0 | 0.00 | 0.00 | 0.00 | 84 | 1010.5 |
| 20260903121552 | 78 | 221 | 1.0 | 5.0 | 0.00 | 0.00 | 0.00 | 87 | 1010.5 |
| 20260903120110 | 78 | 193 | 0.0 | 4.0 | 0.00 | 0.00 | 0.00 | 88 | 1010.5 |
| 20260903114559 | 78 | 209 | 0.0 | 2.0 | 0.00 | 0.00 | 0.00 | 88 | 1010.6 |
| 20260903113045 | 78 | 203 | 0.0 | 2.0 | 0.00 | 0.00 | 0.00 | 89 | 1010.6 |
| 20260903111544 | 78 | 198 | 0.0 | 3.0 | 0.00 | 0.00 | 0.00 | 89 | 1010.5 |
| 20260903110047 | 78 | 217 | 0.0 | 3.0 | 0.00 | 0.00 | 0.00 | 89 | 1010.5 |
| 20260903104544 | 78 | 228 | 0.0 | 0.0 | 0.00 | 0.00 | 0.00 | 89 | 1010.4 |
| 20260903103042 | 78 | 232 | 0.0 | 4.0 | 0.00 | 0.00 | 0.00 | 89 | 1010.3 |
| 20260903101543 | 77 | 224 | 0.0 | 1.0 | 0.00 | 0.00 | 0.00 | 91 | 1010.3 |
| 20260903100046 | 78 | 224 | 0.0 | 1.0 | 0.00 | 0.00 | 0.00 | 91 | 1010.5 |
| 20260903094543 | 78 | 198 | 0.0 | 0.0 | 0.00 | 0.00 | 0.00 | 91 | 1010.5 |
| 20260903093038 | 78 | 196 | 0.0 | 0.0 | 0.00 | 0.00 | 0.00 | 91 | 1010.3 |
| 20260903091539 | 78 | 196 | 1.0 | 4.0 | 0.00 | 0.00 | 0.00 | 90 | 1010.4 |
| 20260903090038 | 78 | 162 | 0.0 | 2.0 | 0.00 | 0.00 | 0.00 | 90 | 1010.5 |
| 20260903084539 | 79 | 227 | 0.0 | 0.0 | 0.00 | 0.00 | 0.00 | 89 | 1010.4 |
| 20260903083044 | 78 | 236 | 0.0 | 0.0 | 0.00 | 0.00 | 0.00 | 91 | 1010.4 |
| 20260903081536 | 78 | 236 | 0.0 | 0.0 | 0.00 | 0.00 | 0.00 | 92 | 1010.4 |
| 20260903080035 | 78 | 236 | 0.0 | 0.0 | 0.00 | 0.00 | 0.00 | 92 | 1010.3 |
| 20260903074534 | 78 | 236 | 0.0 | 0.0 | 0.00 | 0.00 | 0.00 | 92 | 1010.2 |
| 20260903073038 | 78 | 236 | 0.0 | 0.0 | 0.00 | 0.00 | 0.00 | 92 | 1010.2 |
| 20260903071532 | 78 | 236 | 0.0 | 0.0 | 0.00 | 0.00 | 0.00 | 92 | 1010.3 |
| 20260903070031 | 79 | 236 | 0.0 | 0.0 | 0.00 | 0.00 | 0.00 | 91 | 1010.3 |
| 20260903064528 | 79 | 236 | 0.0 | 0.0 | 0.00 | 0.00 | 0.00 | 90 | 1010.3 |
| 20260903063028 | 79 | 236 | 0.0 | 0.0 | 0.00 | 0.00 | 0.00 | 91 | 1010.4 |
| 20260903061541 | 79 | 236 | 0.0 | 0.0 | 0.00 | 0.00 | 0.00 | 90 | 1010.5 |
| 20260903060027 | 79 | 236 | 0.0 | 0.0 | 0.00 | 0.00 | 0.00 | 90 | 1010.6 |
| 20260903054525 | 80 | 236 | 0.0 | 0.0 | 0.00 | 0.00 | 0.00 | 89 | 1010.5 |
| 20260903053024 | 79 | 203 | 0.0 | 0.0 | 0.00 | 0.00 | 0.00 | 90 | 1010.5 |
| 20260903051523 | 79 | 203 | 0.0 | 0.0 | 0.00 | 0.00 | 0.00 | 90 | 1010.5 |
| 20260903050024 | 79 | 203 | 0.0 | 0.0 | 0.00 | 0.00 | 0.00 | 90 | 1010.3 |
| 20260903044520 | 79 | 203 | 0.0 | 0.0 | 0.00 | 0.00 | 0.00 | 90 | 1010.2 |
| 20260903043020 | 80 | 203 | 0.0 | 0.0 | 0.00 | 0.00 | 0.00 | 90 | 1010.0 |
| 20260903041530 | 80 | 203 | 0.0 | 0.0 | 0.00 | 0.00 | 0.00 | 89 | 1010.2 |
| 20260903040019 | 80 | 203 | 0.0 | 0.0 | 0.00 | 0.00 | 0.00 | 89 | 1010.2 |
| 20260903034518 | 80 | 203 | 0.0 | 0.0 | 0.00 | 0.00 | 0.00 | 88 | 1010.2 |
| 20260903033018 | 80 | 203 | 0.0 | 0.0 | 0.00 | 0.00 | 0.00 | 87 | 1010.1 |
| 20260903031524 | 81 | 203 | 0.0 | 0.0 | 0.00 | 0.00 | 0.00 | 86 | 1010.1 |
| 20260903030018 | 81 | 203 | 0.0 | 0.0 | 0.00 | 0.00 | 0.00 | 86 | 1010.0 |
| 20260903024516 | 82 | 203 | 0.0 | 0.0 | 0.00 | 0.00 | 0.00 | 85 | 1010.1 |
| 20260903023016 | 82 | 203 | 0.0 | 0.0 | 0.00 | 0.00 | 0.00 | 83 | 1010.0 |
| 20260903021517 | 82 | 203 | 0.0 | 0.0 | 0.00 | 0.00 | 0.00 | 83 | 1010.0 |
| 20260903020031 | 83 | 203 | 0.0 | 0.0 | 0.00 | 0.00 | 0.00 | 82 | 1009.9 |
| 20260903014514 | 83 | 203 | 0.0 | 0.0 | 0.00 | 0.00 | 0.00 | 81 | 1010.0 |
| 20260903013014 | 83 | 203 | 0.0 | 0.0 | 0.00 | 0.00 | 0.00 | 80 | 1009.9 |
| 20260903011513 | 84 | 203 | 0.0 | 0.0 | 0.00 | 0.00 | 0.00 | 79 | 1009.6 |
| 20260903010014 | 84 | 203 | 0.0 | 0.0 | 0.00 | 0.00 | 0.00 | 78 | 1009.5 |
| 20260903004512 | 85 | 203 | 0.0 | 0.0 | 0.00 | 0.00 | 0.00 | 77 | 1009.3 |
| 20260903003012 | 86 | 203 | 0.0 | 0.0 | 0.00 | 0.00 | 0.00 | 74 | 1009.4 |
| 20260903001512 | 87 | 203 | 0.0 | 0.0 | 0.00 | 0.00 | 0.00 | 71 | 1009.3 |
| 20260903000011 | 88 | 203 | 0.0 | 0.0 | 0.00 | 0.00 | 0.00 | 69 | 1009.3 |
| 20260902234510 | 89 | 203 | 0.0 | 0.0 | 0.00 | 0.00 | 0.00 | 67 | 1009.2 |
| 20260902233011 | 90 | 203 | 0.0 | 0.0 | 0.00 | 0.00 | 0.00 | 66 | 1009.1 |
| 20260902231515 | 90 | 203 | 0.0 | 3.0 | 0.00 | 0.00 | 0.00 | 66 | 1009.0 |
| 20260902230010 | 90 | 203 | 0.0 | 3.0 | 0.00 | 0.00 | 0.00 | 65 | 1009.0 |
| 20260902224508 | 91 | 152 | 0.0 | 3.0 | 0.00 | 0.00 | 0.00 | 63 | 1009.1 |
| 20260902223007 | 92 | 69 | 1.0 | 4.0 | 0.00 | 0.00 | 0.00 | 60 | 1009.1 |
| 20260902221517 | 93 | 264 | 0.0 | 2.0 | 0.00 | 0.00 | 0.00 | 57 | 1009.2 |
| 20260902220006 | 93 | 234 | 1.0 | 6.0 | 0.00 | 0.00 | 0.00 | 56 | 1009.2 |
| 20260902214513 | 93 | 182 | 1.0 | 5.0 | 0.00 | 0.00 | 0.00 | 57 | 1009.3 |
| 20260902213008 | 93 | 220 | 0.0 | 4.0 | 0.00 | 0.00 | 0.00 | 55 | 1009.3 |
| 20260902211504 | 95 | 155 | 1.0 | 7.0 | 0.00 | 0.00 | 0.00 | 54 | 1009.4 |
| 20260902210004 | 95 | 211 | 1.0 | 9.0 | 0.00 | 0.00 | 0.00 | 54 | 1009.3 |
| 20260902204506 | 95 | 281 | 1.0 | 7.0 | 0.00 | 0.00 | 0.00 | 54 | 1009.3 |
| 20260902203002 | 95 | 193 | 2.0 | 7.0 | 0.00 | 0.00 | 0.00 | 54 | 1009.4 |
| 20260902201502 | 95 | 209 | 2.0 | 9.0 | 0.00 | 0.00 | 0.00 | 53 | 1009.4 |
| 20260902200058 | 95 | 287 | 1.0 | 4.0 | 0.00 | 0.00 | 0.00 | 55 | 1009.6 |